Find Starlink 2426

NORAD ID: 47836 Int'l Des: 2021-018 Owner: SPXS Country: US Constellation: starlink operational
LEOCIRCULAR

当前视图

正在加载3D地球...

About Starlink 2426

Starlink 2426 (NORAD 47836) is a starlink constellation satellite (v1.0) launched Mar 11, 2021 by SPXS of US. It operates in LEO, CIRCULAR orbit with a mass of 260.00 kg.

即将过境

Passes for default location (London). Set your location on the main map for personalized predictions.

高度历史

Loading altitude history...

两行轨道根数

1 47836U 21018BB 26254.92243698 .00000658 00000-0 32963-4 0 9998
2 47836 53.1596 98.3224 0001174 92.0858 268.0278 15.31705916305236
Epoch: Sep 11, 2026 • Age: 19 hours

当前状态

高度 476.3 km
远地点 / 近地点 N/A
速度 7.63 km/s
星下点 52.57°N, 54.22°W
发射日期 Mar 11, 2021
运行时间 5.5 years
类型 internet

技术详情

分类 Payload
质量 260.00 kg
干质量 248.00 kg
总质量 260.00 kg
长度 0.20 m
直径 2.80 m
跨度 9.00 m
形状 Box + pan
制造商 SPXS
平台类型 Starlink
阶段状态 In Orbit
所有者/国家 SPXS/US

Most Searched